Location: Krakow
(50.0830°N, 19.9170°E)
Time: 04:01:52
(UTC+02:00)

Tiros 1 - Pass Details

Date: 09 February 2023
Orbit: 627 x 662 km, 48.4° (Epoch: 25 March)

Event Time Altitude Azimuth Distance (km) Brightness Sun altitude
Rises 21:45:33 0° 222° (SW) 2,900 - -45.9°
Reaches altitude 10° 21:48:03 10° 212° (SSW) 1,995 - -46.2°
Maximum altitude 21:52:05 31° 150° (SSE) 1,107 - -46.6°
Drops below altitude 10° 21:56:08 10° 89° (E) 2,007 - -47.1°
Sets 21:58:39 0° 79° (E) 2,921 - -47.4°
